Date String (YYYY-MM-DD hh:mm:ss) UTC,Instrument flags,Ambient pressure (hPa),Sample flow (lpm),Bypass flow (lpm),Sample temperature (°C),Ambient temperature (°C),ASC tube jacket temperature (°C),LED temperature (°C),Box temperature (°C),Sample RH (%),Span deviation,Mass concentration (μg/m³),Mass concentration (μg/m³),Mass concentration (μg/m³)
DateTimeUTC,F1_M11,P_M11,Q1_M11,Q2_M11,T1_M11,T2_M11,T3_M11,T4_M11,T5_M11,U1_M11,ZSPAN_M11,X2_M11,X0_M11,X1_M11
2023-02-26 10:00:00,,0817.0,4.99,0.00,22.2,20.3,00.0,31.1,23.9,13.9,0000.0,0004.13,0008.86,0003.45
2023-02-26 10:01:00,,0817.0,5.00,0.00,22.2,20.3,00.0,31.1,23.9,13.9,0000.0,0004.14,0008.46,0003.45
2023-02-26 10:02:00,,0817.0,5.00,0.00,22.2,20.3,00.0,31.0,23.9,13.9,0000.0,0004.12,0008.26,0003.45
2023-02-26 10:03:00,,0817.0,5.00,0.00,22.2,20.2,00.0,31.0,23.8,13.9,0000.0,0004.16,0008.84,0003.45
2023-02-26 10:04:00,,0817.0,5.00,0.00,22.1,20.2,00.0,31.0,23.8,14.0,0000.0,0004.13,0009.36,0003.44
2023-02-26 10:05:00,,0817.0,5.00,0.00,22.1,20.2,00.0,31.0,23.8,14.0,0000.0,0004.12,0009.56,0003.43
2023-02-26 10:06:00,,0817.0,5.00,0.00,22.1,20.2,00.0,31.0,23.8,14.0,0000.0,0004.13,0009.63,0003.43
2023-02-26 10:07:00,,0817.0,5.00,0.00,22.1,21.0,00.0,30.9,23.9,14.0,0000.0,0004.16,0009.75,0003.44
2023-02-26 10:08:00,,0817.0,4.99,0.00,22.2,22.2,00.0,30.9,24.2,14.0,0000.0,0004.19,0009.88,0003.45
2023-02-26 10:09:00,,0817.0,4.96,0.00,22.4,23.1,00.0,31.0,24.4,13.9,0000.0,0004.21,0009.77,0003.47
2023-02-26 10:10:00,,0816.9,5.03,0.00,22.4,22.7,00.0,31.0,24.4,13.8,0000.0,0004.19,0009.23,0003.48
2023-02-26 10:11:00,,0817.0,5.01,0.00,22.5,22.3,00.0,31.0,24.4,13.7,0000.0,0004.19,0009.19,0003.50
2023-02-26 10:12:00,,0817.0,4.98,0.00,22.4,21.9,00.0,31.1,24.3,13.7,0000.0,0004.23,0009.06,0003.51
2023-02-26 10:13:00,,0817.0,4.98,0.00,22.4,21.5,00.0,31.1,24.2,13.8,0000.0,0004.27,0009.11,0003.54
2023-02-26 10:14:00,,0817.0,5.02,0.00,22.4,21.2,00.0,31.1,24.1,14.0,0000.0,0004.32,0008.62,0003.60
2023-02-26 10:15:00,,0816.9,5.00,0.00,22.3,20.9,00.0,31.1,24.0,14.0,0000.0,0004.37,0008.26,0003.66
2023-02-26 10:16:00,,0817.1,4.99,0.00,22.3,20.8,00.0,31.1,24.0,13.9,0000.0,0004.41,0008.23,0003.70
2023-02-26 10:17:00,,0816.9,5.01,0.00,22.3,20.7,00.0,31.1,24.0,13.2,0000.0,0004.34,0008.06,0003.66
2023-02-26 10:18:00,,0816.9,5.00,0.00,22.3,20.6,00.0,31.1,24.0,12.8,0000.0,0004.25,0007.84,0003.60
2023-02-26 10:19:00,,0816.8,5.00,0.00,22.3,20.6,00.0,31.1,24.0,12.9,0000.0,0004.14,0007.67,0003.54
2023-02-26 10:20:00,,0816.9,4.98,0.00,22.3,20.6,00.0,31.1,24.0,12.7,0000.0,0004.03,0007.69,0003.46
2023-02-26 10:21:00,,0816.8,5.00,0.00,22.2,20.5,00.0,31.0,24.0,12.5,0000.0,0003.94,0007.70,0003.37
2023-02-26 10:22:00,,0816.8,5.01,0.00,22.2,20.5,00.0,31.0,23.9,12.5,0000.0,0003.89,0007.84,0003.29
2023-02-26 10:23:00,,0816.8,4.99,0.00,22.2,20.5,00.0,31.0,23.9,12.5,0000.0,0003.76,0007.64,0003.20
2023-02-26 10:24:00,,0817.2,5.00,0.00,22.2,20.5,00.0,31.0,24.0,12.7,0000.0,0003.64,0007.53,0003.09
2023-02-26 10:25:00,,0816.7,4.99,0.00,22.2,20.5,00.0,31.0,23.9,12.7,0000.0,0003.53,0007.48,0002.91
2023-02-26 10:26:00,,0817.0,5.00,0.00,22.2,20.4,00.0,31.0,23.9,12.7,0000.0,0003.39,0007.14,0002.66
2023-02-26 10:27:00,,0817.1,5.00,0.00,22.2,20.4,00.0,31.0,23.9,12.7,0000.0,0003.26,0007.40,0002.46
2023-02-26 10:28:00,,0816.9,4.99,0.00,22.1,20.3,00.0,31.0,23.9,12.9,0000.0,0003.20,0007.22,0002.40
2023-02-26 10:29:00,,0816.6,5.01,0.00,22.1,20.6,00.0,30.9,23.9,12.8,0000.0,0003.19,0007.54,0002.40
2023-02-26 10:30:00,,0816.6,4.98,0.00,22.2,21.8,00.0,30.9,24.2,12.7,0000.0,0003.18,0007.92,0002.37
2023-02-26 10:31:00,,0816.7,4.99,0.00,22.4,22.8,00.0,30.9,24.4,12.6,0000.0,0003.20,0007.92,0002.36
2023-02-26 10:32:00,,0816.5,4.99,0.00,22.5,22.9,00.0,31.0,24.5,12.7,0000.0,0003.24,0007.93,0002.39
2023-02-26 10:33:00,,0816.5,5.00,0.00,22.5,22.4,00.0,31.0,24.4,12.7,0000.0,0003.25,0007.73,0002.41
2023-02-26 10:34:00,,0816.5,5.00,0.00,22.5,22.0,00.0,31.1,24.3,12.8,0000.0,0003.28,0007.78,0002.48
2023-02-26 10:35:00,,0816.5,4.99,0.00,22.5,21.7,00.0,31.1,24.3,12.8,0000.0,0003.32,0008.44,0002.54
2023-02-26 10:36:00,,0816.5,4.99,0.00,22.5,21.4,00.0,31.1,24.2,12.7,0000.0,0003.38,0008.80,0002.58
2023-02-26 10:37:00,,0816.6,5.00,0.00,22.4,21.2,00.0,31.1,24.2,12.6,0000.0,0003.43,0009.05,0002.61
2023-02-26 10:38:00,,0816.7,4.98,0.00,22.4,21.1,00.0,31.1,24.2,12.6,0000.0,0003.47,0008.82,0002.65
2023-02-26 10:39:00,,0816.5,5.02,0.00,22.4,21.0,00.0,31.1,24.2,12.5,0000.0,0003.46,0008.88,0002.65
2023-02-26 10:40:00,,0816.5,4.99,0.00,22.4,20.9,00.0,31.1,24.2,12.3,0000.0,0003.47,0008.87,0002.63
2023-02-26 10:41:00,,0816.4,4.98,0.00,22.4,20.8,00.0,31.1,24.1,12.3,0000.0,0003.50,0008.57,0002.65
2023-02-26 10:42:00,,0816.4,5.01,0.00,22.4,20.7,00.0,31.1,24.1,12.2,0000.0,0003.51,0008.48,0002.65
2023-02-26 10:43:00,,0816.4,5.00,0.00,22.4,20.7,00.0,31.1,24.1,12.1,0000.0,0003.48,0008.57,0002.62
2023-02-26 10:44:00,,0816.4,5.01,0.00,22.3,20.6,00.0,31.1,24.1,12.7,0000.0,0003.50,0008.64,0002.65
2023-02-26 10:45:00,,0816.4,4.99,0.00,22.3,20.6,00.0,31.1,24.1,13.2,0000.0,0003.54,0008.69,0002.75
2023-02-26 10:46:00,,0816.4,5.01,0.00,22.3,20.6,00.0,31.1,24.1,12.9,0000.0,0003.57,0008.23,0002.80
2023-02-26 10:47:00,,0816.4,4.99,0.00,22.3,20.6,00.0,31.1,24.0,12.4,0000.0,0003.52,0007.78,0002.74
2023-02-26 10:48:00,,0816.4,5.01,0.00,22.3,20.5,00.0,31.1,24.0,12.2,0000.0,0003.45,0007.52,0002.69
2023-02-26 10:49:00,,0816.3,5.01,0.00,22.3,20.5,00.0,31.1,24.0,12.4,0000.0,0003.41,0006.94,0002.64
2023-02-26 10:50:00,,0816.3,5.01,0.00,22.3,20.5,00.0,31.0,24.0,12.9,0000.0,0003.46,0007.03,0002.71
2023-02-26 10:51:00,,0816.3,4.99,0.00,22.3,20.5,00.0,31.0,24.0,13.0,0000.0,0003.55,0007.13,0002.80
2023-02-26 10:52:00,,0816.3,5.00,0.00,22.2,20.5,00.0,31.0,24.0,13.4,0000.0,0003.63,0007.54,0002.94
2023-02-26 10:53:00,,0816.3,5.01,0.00,22.2,20.5,00.0,31.0,24.0,13.3,0000.0,0003.68,0007.53,0003.08
2023-02-26 10:54:00,,0816.3,5.02,0.00,22.3,21.3,00.0,31.0,24.1,13.3,0000.0,0003.74,0007.96,0003.16
2023-02-26 10:55:00,,0816.3,5.03,0.00,22.4,22.4,00.0,31.0,24.4,13.2,0000.0,0003.79,0008.39,0003.21
2023-02-26 10:56:00,,0816.3,5.00,0.00,22.5,23.0,00.0,31.0,24.5,13.3,0000.0,0003.81,0008.56,0003.22
2023-02-26 10:57:00,,0816.3,5.02,0.00,22.5,22.7,00.0,31.1,24.5,13.3,0000.0,0003.84,0008.55,0003.24
2023-02-26 10:58:00,,0816.3,5.00,0.00,22.6,22.3,00.0,31.1,24.4,13.3,0000.0,0003.94,0008.78,0003.32
2023-02-26 10:59:00,,0816.3,4.98,0.00,22.6,22.0,00.0,31.1,24.4,13.2,0000.0,0004.09,0009.17,0003.42
